• In Lithuania
  • List of Countries
  • For 7 days
  • Water Temperature
  • Satellite Maps
  • Weather Map
  • Weather Widgets
  • user-avatar
    Login

    Hourly Weather Dungarpur

    Today, 23 June, Saturday

    Time Temperature Precipitation Wind Pressure Humidity
    00:00 +31°C° 1.4 mm 2 mps 726 mmHg 72%
    01:00 +30°C° 1.4 mm 2 mps 726 mmHg 71%
    02:00 +30°C° 1.4 mm 2 mps 726 mmHg 71%
    03:00 +30°C° 0.4 mm 1 mps 726 mmHg 71%
    04:00 +30°C° 0.4 mm 1 mps 726 mmHg 71%
    05:00 +31°C° 0 mm 2 mps 725 mmHg 70%
    06:00 +33°C° 0 mm 3 mps 725 mmHg 68%
    07:00 +33°C° 0 mm 3 mps 726 mmHg 65%
    08:00 +34°C° 0 mm 3 mps 726 mmHg 63%
    09:00 +35°C° 0 mm 3 mps 726 mmHg 58%
    10:00 +36°C° 0 mm 3 mps 726 mmHg 53%
    11:00 +38°C° 0 mm 3 mps 726 mmHg 48%
    12:00 +39°C° 0 mm 3 mps 726 mmHg 45%
    13:00 +39°C° 0 mm 3 mps 725 mmHg 41%
    14:00 +40°C° 0 mm 3 mps 725 mmHg 38%
    15:00 +40°C° 0 mm 3 mps 725 mmHg 38%
    16:00 +40°C° 0 mm 3 mps 724 mmHg 38%
    17:00 +40°C° 0 mm 3 mps 724 mmHg 38%
    18:00 +41°C° 0 mm 4 mps 724 mmHg 40%
    19:00 +40°C° 0 mm 4 mps 724 mmHg 42%
    20:00 +38°C° 0 mm 4 mps 724 mmHg 44%
    21:00 +39°C° 0.3 mm 5 mps 724 mmHg 47%
    22:00 +38°C° 0.3 mm 6 mps 725 mmHg 49%
    23:00 +36°C° 0.3 mm 7 mps 725 mmHg 51%

    Tomorrow, 24 June, Sunday

    Time Temperature Precipitation Wind Pressure Humidity
    00:00 +35°C° 0.4 mm 6 mps 725 mmHg 55%
    01:00 +34°C° 0.4 mm 6 mps 725 mmHg 59%
    02:00 +33°C° 0.4 mm 6 mps 725 mmHg 63%
    03:00 +33°C° 0.1 mm 6 mps 725 mmHg 64%
    04:00 +33°C° 0.1 mm 5 mps 725 mmHg 66%
    05:00 +33°C° 0.1 mm 5 mps 725 mmHg 67%
    06:00 +33°C° 0 mm 5 mps 725 mmHg 66%
    07:00 +33°C° 0 mm 5 mps 725 mmHg 65%
    08:00 +34°C° 0 mm 5 mps 726 mmHg 64%
    09:00 +35°C° 0 mm 5 mps 726 mmHg 60%
    10:00 +36°C° 0 mm 5 mps 726 mmHg 55%
    11:00 +37°C° 0 mm 5 mps 726 mmHg 51%
    12:00 +39°C° 0 mm 5 mps 725 mmHg 47%
    13:00 +40°C° 0 mm 5 mps 725 mmHg 44%
    14:00 +41°C° 0 mm 4 mps 724 mmHg 41%
    15:00 +41°C° 0 mm 5 mps 724 mmHg 40%
    16:00 +41°C° 0 mm 5 mps 724 mmHg 40%
    17:00 +40°C° 0 mm 5 mps 724 mmHg 40%
    18:00 +40°C° 0 mm 6 mps 724 mmHg 42%
    19:00 +39°C° 0 mm 6 mps 724 mmHg 45%
    20:00 +38°C° 0 mm 7 mps 724 mmHg 47%
    21:00 +36°C° 0.1 mm 7 mps 724 mmHg 50%
    22:00 +35°C° 0.1 mm 6 mps 725 mmHg 53%
    23:00 +35°C° 0.1 mm 6 mps 726 mmHg 56%

    Day after tomorrow, 25 June, Monday

    Time Temperature Precipitation Wind Pressure Humidity
    00:00 +34°C° 0.1 mm 6 mps 725 mmHg 58%
    01:00 +34°C° 0.1 mm 6 mps 725 mmHg 60%
    02:00 +33°C° 0.1 mm 5 mps 725 mmHg 61%
    03:00 +33°C° 0 mm 5 mps 725 mmHg 63%
    04:00 +33°C° 0 mm 5 mps 725 mmHg 64%
    05:00 +32°C° 0 mm 5 mps 725 mmHg 66%
    06:00 +33°C° 0 mm 5 mps 725 mmHg 66%
    07:00 +33°C° 0 mm 5 mps 725 mmHg 65%
    08:00 +33°C° 0 mm 5 mps 725 mmHg 65%
    09:00 +34°C° 0 mm 6 mps 725 mmHg 60%
    10:00 +36°C° 0 mm 6 mps 725 mmHg 54%
    11:00 +38°C° 0 mm 6 mps 725 mmHg 49%
    12:00 +39°C° 0 mm 6 mps 725 mmHg 46%
    13:00 +39°C° 0 mm 6 mps 724 mmHg 43%
    14:00 +40°C° 0 mm 6 mps 723 mmHg 40%
    15:00 +40°C° 0 mm 5 mps 723 mmHg 40%
    16:00 +40°C° 0 mm 5 mps 723 mmHg 41%
    17:00 +39°C° 0 mm 5 mps 722 mmHg 41%
    18:00 +39°C° 0 mm 5 mps 723 mmHg 43%
    19:00 +37°C° 0 mm 5 mps 723 mmHg 45%
    20:00 +37°C° 0 mm 5 mps 724 mmHg 47%
    21:00 +36°C° 0.3 mm 6 mps 724 mmHg 51%
    22:00 +35°C° 0.3 mm 6 mps 724 mmHg 56%
    23:00 +34°C° 0.3 mm 6 mps 724 mmHg 60%

    26 June, Tuesday

    Time Temperature Precipitation Wind Pressure Humidity
    00:00 +33°C° 0 mm 6 mps 724 mmHg 61%
    01:00 +33°C° 0 mm 6 mps 723 mmHg 62%
    02:00 +33°C° 0 mm 6 mps 723 mmHg 63%
    03:00 +32°C° 0.9 mm 5 mps 723 mmHg 65%
    04:00 +32°C° 0.9 mm 5 mps 723 mmHg 67%
    05:00 +30°C° 0.9 mm 4 mps 723 mmHg 70%
    06:00 +32°C° 0.8 mm 4 mps 724 mmHg 68%
    07:00 +32°C° 0.8 mm 4 mps 724 mmHg 67%
    08:00 +32°C° 0.8 mm 4 mps 725 mmHg 65%
    09:00 +34°C° 0.4 mm 5 mps 725 mmHg 61%
    10:00 +35°C° 0.4 mm 5 mps 725 mmHg 56%
    11:00 +36°C° 0.4 mm 5 mps 725 mmHg 52%
    12:00 +36°C° 0 mm 5 mps 724 mmHg 50%
    13:00 +37°C° 0 mm 5 mps 724 mmHg 47%
    14:00 +37°C° 0 mm 5 mps 723 mmHg 45%
    15:00 +37°C° 0 mm 5 mps 723 mmHg 45%
    16:00 +37°C° 0 mm 5 mps 723 mmHg 46%
    17:00 +37°C° 0 mm 5 mps 723 mmHg 46%
    18:00 +36°C° 0 mm 5 mps 723 mmHg 48%
    19:00 +36°C° 0 mm 5 mps 723 mmHg 50%
    20:00 +35°C° 0 mm 5 mps 724 mmHg 52%
    21:00 +34°C° 0.2 mm 5 mps 724 mmHg 57%
    22:00 +34°C° 0.2 mm 6 mps 724 mmHg 61%
    23:00 +33°C° 0.2 mm 6 mps 724 mmHg 66%

    27 June, Wednesday

    Time Temperature Precipitation Wind Pressure Humidity
    00:00 +32°C° 0.3 mm 6 mps 724 mmHg 67%
    01:00 +32°C° 0.3 mm 6 mps 724 mmHg 69%
    02:00 +30°C° 0.3 mm 5 mps 723 mmHg 71%
    03:00 +30°C° 0 mm 5 mps 723 mmHg 71%
    04:00 +30°C° 0 mm 4 mps 723 mmHg 72%
    05:00 +30°C° 0 mm 4 mps 723 mmHg 72%
    06:00 +32°C° 0 mm 4 mps 724 mmHg 70%
    07:00 +32°C° 0 mm 4 mps 724 mmHg 67%
    08:00 +33°C° 0 mm 4 mps 725 mmHg 65%
    09:00 +34°C° 0 mm 4 mps 725 mmHg 61%
    10:00 +35°C° 0 mm 4 mps 725 mmHg 57%
    11:00 +36°C° 0 mm 3 mps 725 mmHg 52%
    12:00 +36°C° 0 mm 4 mps 724 mmHg 50%
    13:00 +37°C° 0 mm 4 mps 724 mmHg 47%
    14:00 +38°C° 0 mm 4 mps 723 mmHg 45%
    15:00 +38°C° 0 mm 4 mps 723 mmHg 45%
    16:00 +38°C° 0 mm 4 mps 723 mmHg 44%
    17:00 +38°C° 0 mm 4 mps 723 mmHg 44%
    18:00 +37°C° 0 mm 4 mps 723 mmHg 46%
    19:00 +37°C° 0 mm 5 mps 723 mmHg 48%
    20:00 +36°C° 0 mm 5 mps 723 mmHg 50%
    21:00 +35°C° 0 mm 5 mps 723 mmHg 52%
    22:00 +35°C° 0 mm 6 mps 724 mmHg 55%
    23:00 +34°C° 0 mm 6 mps 724 mmHg 58%

    28 June, Thursday

    Time Temperature Precipitation Wind Pressure Humidity
    00:00 +33°C° 1 mm 6 mps 724 mmHg 61%
    01:00 +32°C° 1 mm 5 mps 724 mmHg 65%
    02:00 +30°C° 1 mm 5 mps 724 mmHg 69%
    03:00 +30°C° 0.6 mm 4 mps 724 mmHg 70%
    04:00 +30°C° 0.6 mm 4 mps 724 mmHg 72%
    05:00 +30°C° 0.6 mm 4 mps 724 mmHg 74%
    06:00 +30°C° 0.4 mm 4 mps 724 mmHg 74%
    07:00 +30°C° 0.4 mm 3 mps 725 mmHg 74%
    08:00 +30°C° 0.4 mm 3 mps 725 mmHg 74%
    09:00 +31°C° 0.4 mm 3 mps 725 mmHg 69%
    10:00 +33°C° 0.4 mm 3 mps 725 mmHg 65%
    11:00 +34°C° 0.4 mm 3 mps 725 mmHg 61%
    12:00 +34°C° 0.4 mm 3 mps 725 mmHg 58%
    13:00 +35°C° 0.4 mm 3 mps 724 mmHg 55%
    14:00 +35°C° 0.4 mm 3 mps 724 mmHg 53%
    15:00 +35°C° 0.1 mm 3 mps 724 mmHg 52%
    16:00 +35°C° 0.1 mm 3 mps 724 mmHg 52%
    17:00 +35°C° 0.1 mm 3 mps 724 mmHg 51%
    18:00 +35°C° 0 mm 2 mps 724 mmHg 53%
    19:00 +35°C° 0 mm 2 mps 724 mmHg 54%
    20:00 +35°C° 0 mm 2 mps 725 mmHg 55%
    21:00 +34°C° 0.3 mm 3 mps 725 mmHg 58%
    22:00 +33°C° 0.3 mm 3 mps 725 mmHg 61%
    23:00 +33°C° 0.3 mm 4 mps 725 mmHg 64%
    Show more